This is the latest recevied weather packets stored in our database for station/object W2TAO. If no packets are shown the sender has not sent any weather packets the latest 10 day(s).
| Time | Temp. | Humidity | Pressure | Rain* | Wind** | Luminosity | Snow |
|---|---|---|---|---|---|---|---|
| 1777766733 | 7.78° C | 56% | 1012.8 hPa | 0 mm | - | 1 W/m² | - |
| 1777766430 | 7.78° C | 51% | 1012.9 hPa | 0 mm | - | 2 W/m² | - |
| 1777766126 | 7.78° C | 52% | 1012.8 hPa | 0 mm | - | 4 W/m² | - |
| 1777765824 | 8.33° C | 55% | 1012.8 hPa | 0 mm | - | 7 W/m² | - |
| 1777765520 | 8.33° C | 53% | 1012.9 hPa | 0 mm | - | 9 W/m² | - |
| 1777765218 | 8.89° C | 58% | 1012.9 hPa | 0 mm | - | 12 W/m² | - |
| 1777764913 | 8.89° C | 49% | 1012.8 hPa | 0 mm | - | 17 W/m² | - |
| 1777764610 | 8.89° C | 51% | 1012.8 hPa | 0 mm | - | 22 W/m² | - |
| 1777764306 | 8.89° C | 54% | 1012.8 hPa | 0 mm | - | 27 W/m² | - |
| 1777764003 | 8.89° C | 55% | 1012.7 hPa | 0 mm | - | 27 W/m² | - |
| 1777763700 | 8.89° C | 53% | 1012.8 hPa | 0 mm | - | 32 W/m² | - |
| 1777763398 | 9.44° C | 58% | 1012.8 hPa | 0 mm | - | 38 W/m² | - |
| 1777763096 | 9.44° C | 55% | 1012.7 hPa | 0 mm | - | 45 W/m² | - |
| 1777762794 | 9.44° C | 42% | 1012.7 hPa | 0 mm | - | 45 W/m² | - |
| 1777762490 | 9.44° C | 50% | 1012.7 hPa | 0 mm | - | 50 W/m² | - |
| 1777762187 | 9.44° C | 47% | 1012.6 hPa | 0 mm | - | 59 W/m² | - |
| 1777761883 | 10° C | 42% | 1012.5 hPa | 0 mm | - | 49 W/m² | - |
| 1777761580 | 10° C | 45% | 1012.5 hPa | 0 mm | - | 45 W/m² | - |
| 1777761278 | 10° C | 47% | 1012.4 hPa | 0 mm | - | 57 W/m² | - |
| 1777760976 | 10° C | 41% | 1012.6 hPa | 0 mm | - | 72 W/m² | - |
| 1777760673 | 10.56° C | 42% | 1012.5 hPa | 0 mm | - | 87 W/m² | - |
| 1777760369 | 10.56° C | 46% | 1012.5 hPa | 0 mm | - | 102 W/m² | - |
| 1777760065 | 10.56° C | 42% | 1012.4 hPa | 0 mm | - | 86 W/m² | - |
| 1777759762 | 10° C | 44% | 1012.4 hPa | 0 mm | - | 171 W/m² | - |
| 1777759458 | 10° C | 44% | 1012.4 hPa | 0 mm | - | 65 W/m² | - |
* Rain latest hour (hover to see other rain measurements)
** Current wind speed in m/s (hover to see current wind gust speed)